AMOS-3

Last updated on Fri Dec 19 2025 00:02:49 GMT+0000 (Coordinated Universal Time)

1 32794U 08022A 25352.33909207 -.00000010 00000+0 00000+0 0 9997 2 32794 0.0246 77.8539 0003435 159.2954 328.0063 1.00271287 80523
UTC large
Height (km)
Speed (km/s)
/
Latitude / Longitude
Inclination (degrees)
Orbital Period (minutes)
Azimuth
Elevation
Range (km)
Doppler Factor

Next 0 passes for location: London (51.5072 / 0.1276)

Sorry there are no passes over London.